TimeEST,TemperatureF,Dew PointF,Humidity,Sea Level PressureIn,VisibilityMPH,Wind Direction,Wind SpeedMPH,Gust SpeedMPH,PrecipitationIn,Events,Conditions,WindDirDegrees,DateUTC
12:53 AM,48.9,27.0,43,29.90,10.0,NW,10.4,19.6,N/A,,Clear,310,2012-11-24 05:53:00
1:53 AM,46.0,26.1,46,29.90,10.0,West,9.2,-,N/A,,Clear,280,2012-11-24 06:53:00
3:53 AM,44.1,25.0,47,29.91,10.0,NW,9.2,-,N/A,,Clear,310,2012-11-24 08:53:00
4:53 AM,39.0,25.0,57,29.93,10.0,NW,9.2,-,N/A,,Clear,320,2012-11-24 09:53:00
5:53 AM,39.0,23.0,53,29.95,10.0,NNW,9.2,-,N/A,,Clear,340,2012-11-24 10:53:00
6:53 AM,37.9,21.9,53,29.98,10.0,NNW,8.1,-,N/A,,Clear,340,2012-11-24 11:53:00
7:53 AM,37.9,21.9,53,30.00,10.0,North,8.1,-,N/A,,Clear,360,2012-11-24 12:53:00
8:53 AM,41.0,19.9,43,30.02,10.0,North,17.3,24.2,N/A,,Clear,350,2012-11-24 13:53:00
9:53 AM,42.1,19.0,40,30.04,10.0,NNW,12.7,-,N/A,,Clear,330,2012-11-24 14:53:00
10:53 AM,44.1,19.9,38,30.04,10.0,NW,6.9,17.3,N/A,,Clear,320,2012-11-24 15:53:00
11:53 AM,45.0,19.9,37,30.01,10.0,North,8.1,16.1,N/A,,Clear,360,2012-11-24 16:53:00
12:53 PM,48.0,19.9,33,29.99,10.0,NW,13.8,-,N/A,,Clear,320,2012-11-24 17:53:00
1:53 PM,48.0,18.0,30,29.99,10.0,NW,8.1,18.4,N/A,,Clear,310,2012-11-24 18:53:00
2:53 PM,48.0,17.1,29,29.99,10.0,NW,12.7,19.6,N/A,,Clear,320,2012-11-24 19:53:00
3:53 PM,46.0,16.0,30,30.01,10.0,NW,15.0,23.0,N/A,,Clear,310,2012-11-24 20:53:00
4:53 PM,42.1,16.0,35,30.04,10.0,NW,11.5,-,N/A,,Clear,310,2012-11-24 21:53:00
5:53 PM,39.0,16.0,39,30.07,10.0,NW,8.1,-,N/A,,Clear,320,2012-11-24 22:53:00
6:53 PM,37.0,15.1,41,30.09,10.0,NNW,6.9,-,N/A,,Clear,330,2012-11-24 23:53:00
7:53 PM,35.1,15.1,44,30.11,10.0,NW,8.1,-,N/A,,Clear,310,2012-11-25 00:53:00
8:53 PM,34.0,15.1,46,30.11,10.0,NW,6.9,-,N/A,,Clear,310,2012-11-25 01:53:00
9:53 PM,30.0,15.1,54,30.12,10.0,West,4.6,-,N/A,,Clear,270,2012-11-25 02:53:00
10:53 PM,30.0,16.0,56,30.12,10.0,NW,6.9,-,N/A,,Clear,310,2012-11-25 03:53:00
11:53 PM,27.0,15.1,61,30.11,10.0,Calm,Calm,-,N/A,,Clear,0,2012-11-25 04:53:00